Volver al catálogo

STARLINK-31162

ActivoComunicacionesVLEO
NORAD 58791·PAYLOAD·🇺🇸 United States

Lanzado Jan 15, 2024 desde Cape Canaveral Space Force Station

Loading…

Próximos Pases (próximas 24 horas)

TLE

ActualizadoSource: CelesTrak SupGP

Época: Sep 14, 2026, 21:04 UTC

1 58791C 24012E   26257.87826389 -.00013142  00000+0 -47592-3 0  2571
2 58791  43.0023 176.6606 0001228 261.7567  31.4606 15.27590090    12

Sigue STARLINK-31162 en tiempo real con AllMySat

Download on the App Store